Погода в Кимасозере

Россия / Республика Карелия     64°22′32″N   31°13′34″E
темп.,
°C
ветер,
м/с
пор.,
м/с
влажн.,
%
обл.,
%
осадки,
мм/ч
давл.,
гПа
погр.,
м
16 мая, вс
вс1600:00+5всв3790100 0.0 1011235
03:00+5св3691100 0.0 1010264
06:00+5св358865 0.0 1009307
09:00+8св3482100 0.0 1009453
12:00+12св22657 0.0 1009626
15:00+17с215347 0.0 1008977
18:00+16ссз215673 0.0 1008888
21:00+13св367079 0.0 1010288
17 мая, пн
пн1700:00+9всв3689100 0.0 1011146
03:00+8в2592100 0.0 1012112
06:00+10вюв2485100 0.0 1012172
09:00+13юв3578100 0.0 1013394
12:00+19ю355567 0.3 10121546
15:00+20ю2549100 1.2 10121718
18:00+17в3765100 0.0 1011193
21:00+16юв4971100 0.0 1012263
18 мая, вт
вт1800:00+13юв3985100 0.0 1012224
03:00+12юв41385100 0.1 1011371
06:00+13юв31083100 0.0 1011365
09:00+16ююв4873100 0.1 1010545
12:00+15юв3883100 0.2 1009415
15:00+22юв5955100 0.2 10071389
18:00+22юв5953100 0.0 10041294
21:00+19юв51371100 0.9 1002555
19 мая, ср
ср1900:00+18ююв51580100 2.8 1001676
03:00+16ююв51481100 2.8 1001693
06:00+16ю5128586 0.0 10011037
09:00+18ю6127244 0.1 10021261
12:00+20ююз7115880 0.2 10031590
15:00+19юз6960100 0.2 10041375
18:00+15з577194 0.0 1005632
21:00+14сз2476100 0.0 1006565
20 мая, чт
чт2000:00+11сз138797 0.0 1007122
03:00+12ссв2584100 0.0 1007298
06:00+11ссв368891 0.5 1006351
09:00+11св3591100 0.9 1006289
12:00+12св3589100 0.0 1006346
15:00+15св4683100 0.6 1004502
18:00+16св468977 1.6 1001446
21:00+14всв5119395 3.4 999379